Location: Newark
(44.4156°N, 12.1972°E)
Time: 10:26:30
(UTC+00:00)

STARLINK-1099 - Pass Details

Date: 31 January 2020
Orbit: 548 x 551 km, 53.0° (Epoch: 22 February)

Event Time Altitude Azimuth Distance (km) Brightness Sun altitude
Rises 16:33:46 0° 304° (WNW) 2,723 7.7 -3.4°
Reaches altitude 10° 16:36:05 10° 310° (NW) 1,827 6.7 -3.8°
Maximum altitude 16:40:05 45° 24° (NNE) 757 4.1 -4.5°
Drops below altitude 10° 16:44:04 10° 98° (E) 1,823 5.7 -5.1°
Enters shadow 16:45:51 - 104° (ESE) 2,512 6.5 -5.4°
